EHI
14 13 11 9 7 5 2 1 1 2 3 3 3 2 2 1 0 0 0 1 1 1 1 1 0 1 1 1 1 1 0 0 0 0 0 0 0 0 0 0 0 0 0
14 13 12 10 8 6 3 3 3 4 5 5 5 4 2 1 1 0 1 2 2 2 2 1 0 0 0 1 1 1 0 0 0 0 0 0 0 0 0 0 0 0 0
14 14 14 12 11 8 5 4 6 8 8 8 9 8 6 4 2 0 1 2 2 2 2 1 0 0 0 0 1 1 1 1 0 0 0 0 0 0 0 0 0 0 0
15 15 15 15 13 10 7 6 8 10 10 10 12 12 10 7 3 0 0 1 1 1 1 0 0 1 0 0 1 2 1 1 1 0 0 0 0 0 0 0 0 0 0
16 17 15 14 15 13 11 11 11 11 11 11 12 12 10 7 3 1 1 0 0 0 1 0 0 0 0 0 1 2 2 1 1 0 0 0 0 0 0 0 0 0 0
18 18 16 13 14 16 16 16 16 14 13 12 11 10 9 6 4 3 2 1 0 0 0 0 0 0 0 1 2 3 3 2 1 1 1 0 0 0 0 0 0 0 0
19 18 16 14 14 16 19 20 19 16 14 12 10 9 8 7 5 4 3 2 1 0 0 0 0 0 0 1 2 3 4 4 3 3 3 2 1 0 0 0 0 0 0
16 16 15 13 12 14 18 20 19 16 14 12 10 9 8 7 6 5 4 3 2 1 0 0 1 1 0 1 3 4 5 5 5 5 6 5 3 1 0 0 0 0 0
11 11 12 12 11 14 17 18 16 14 13 11 10 9 9 8 6 5 4 3 3 2 1 1 2 2 1 1 3 5 6 6 6 7 7 6 5 3 1 0 0 0 0
8 9 11 13 14 15 16 16 13 12 11 10 8 8 8 7 6 5 4 3 3 3 1 1 2 3 2 2 4 5 5 5 6 7 7 6 5 4 2 1 1 0 0
8 10 13 14 14 14 15 15 12 10 9 7 6 5 5 5 5 5 4 3 3 3 3 3 4 4 3 3 3 4 5 6 6 6 6 6 6 5 4 2 1 0 0
10 11 13 14 13 13 15 15 12 9 6 5 4 4 3 2 2 3 3 2 2 3 4 6 7 6 4 3 2 3 4 5 6 6 6 6 6 6 4 3 2 1 1
10 11 12 12 11 12 14 15 13 11 9 7 7 8 7 5 2 1 1 1 1 2 4 6 6 6 4 2 2 2 3 4 4 5 6 6 6 6 4 3 3 2 2
10 11 10 9 9 10 11 13 15 14 13 12 12 13 13 11 7 3 2 2 2 2 3 4 4 4 3 2 1 1 2 3 3 4 5 6 7 6 5 4 4 4 3
13 12 9 8 8 7 7 10 14 14 14 14 15 15 15 14 12 8 6 5 4 3 3 3 3 2 2 2 1 0 1 1 2 3 5 6 7 7 6 5 5 5 5
15 12 9 7 6 5 5 8 10 12 13 14 14 15 15 15 14 13 12 10 7 5 4 3 2 1 1 1 1 0 0 0 1 2 4 6 7 7 6 4 4 4 5
12 9 7 6 4 4 5 6 8 10 12 13 14 15 16 16 16 16 14 12 10 9 7 5 3 2 1 0 0 0 0 0 0 1 3 4 6 6 5 4 3 3 4
7 6 6 5 4 3 4 5 7 9 11 13 15 16 17 17 17 15 14 12 10 10 8 5 3 2 1 0 0 0 0 0 0 1 2 3 3 4 4 3 3 3 3
6 6 6 5 4 3 3 4 7 9 11 13 14 15 16 16 15 13 11 10 9 8 7 5 2 1 0 0 0 0 0 0 0 0 1 1 1 1 1 2 3 3 3
7 7 6 6 5 4 5 6 8 10 10 10 11 12 14 13 12 11 9 7 6 5 5 4 3 1 0 0 0 0 0 1 0 0 0 0 0 0 0 1 2 2 2
7 8 8 7 6 7 8 8 8 8 7 6 6 8 11 11 10 9 7 5 4 3 3 3 2 1 0 0 0 0 0 0 0 0 0 0 0 0 0 0 1 1 1
7 8 9 8 7 8 10 9 7 6 5 5 4 6 8 10 9 7 6 4 3 3 3 3 1 0 0 0 0 0 0 0 0 0 0 0 0 0 0 0 0 0 0
7 8 9 8 7 7 8 8 6 5 5 5 4 4 7 9 8 6 5 4 3 3 3 2 1 0 0 0 0 0 0 0 0 0 0 0 0 0 0 0 0 0 0
9 8 7 6 5 5 6 6 6 6 6 6 5 5 6 7 6 5 4 3 1 1 2 1 0 0 0 0 0 0 0 0 0 0 0 0 0 0 0 0 0 0 0
8 7 5 5 4 4 5 5 5 5 5 6 6 6 6 5 4 3 3 3 1 0 0 0 0 0 0 0 0 0 0 0 0 0 0 0 0 0 0 0 0 0 0
7 6 4 4 5 4 4 4 4 4 5 6 6 6 6 4 3 3 3 3 2 1 0 0 0 0 0 0 0 0 0 0 0 0 0 0 0 0 0 0 0 0 0
Wind_Speed
6 6 6 6 5 4 3 2 2 0 1 1 1 1 0 0 0 1 1 1 1 1 1 1 1 1 1 1 1 1 1 1 1 2 1 2 1 0 1 1 2 2 3
5 5 5 5 5 4 3 2 2 1 1 1 1 1 1 0 0 0 0 0 1 1 1 1 1 1 1 1 1 1 1 1 1 2 1 1 2 2 1 1 2 2 2
8 7 6 5 4 4 3 3 2 1 1 0 0 1 1 2 2 2 1 1 0 1 0 1 1 1 2 1 1 1 2 1 1 2 2 2 2 1 2 1 1 1 1
7 6 6 5 5 4 4 3 2 1 1 1 2 2 2 1 0 0 0 1 1 1 1 1 1 1 1 1 1 1 1 2 1 1 1 2 2 2 1 2 1 0 1
7 7 7 6 5 4 4 3 2 1 1 1 2 2 1 1 1 1 2 2 2 2 1 1 1 1 1 1 0 1 1 1 1 1 1 1 0 1 2 1 1 1 1
6 7 6 5 3 2 3 3 2 1 1 1 2 2 2 2 2 1 1 1 1 2 2 2 1 1 0 1 1 1 1 1 1 1 1 1 1 2 2 2 1 1 2
6 8 7 5 3 2 3 3 3 2 1 1 1 2 2 2 2 1 1 0 1 1 1 1 1 1 0 0 1 1 1 1 1 1 1 1 1 2 2 2 1 1 2
6 7 8 7 4 3 4 4 3 2 2 1 1 2 2 2 1 1 1 0 0 0 1 1 1 1 1 1 0 0 1 0 1 1 1 1 1 1 2 2 2 1 1
7 8 7 7 6 5 4 4 4 3 2 2 1 2 2 2 2 1 1 0 1 0 1 1 1 2 2 2 1 0 1 0 1 1 0 0 1 0 1 1 2 2 2
7 6 6 6 6 5 4 4 4 4 2 2 2 2 2 2 2 1 1 1 1 1 1 1 1 1 2 2 1 1 1 1 0 0 0 0 0 0 0 1 1 1 2
7 7 6 6 6 5 4 4 3 3 3 2 2 2 2 1 1 1 0 0 1 1 1 0 1 1 1 1 1 1 1 1 1 1 1 1 0 0 0 0 1 1 1
7 6 6 6 5 5 4 4 4 3 3 3 3 2 1 1 1 1 0 0 0 1 0 0 1 1 1 1 1 1 1 1 1 1 0 1 1 1 1 0 0 1 1
6 5 5 5 5 4 4 4 4 3 3 3 3 2 1 1 1 0 0 0 0 1 1 1 1 1 1 1 1 0 1 1 1 1 1 1 0 1 1 1 1 1 1
5 5 5 5 5 4 4 4 4 3 4 3 3 2 1 1 1 0 0 0 0 1 1 1 1 1 1 2 2 1 1 1 1 1 1 1 1 1 1 1 1 1 0
6 6 5 5 5 4 4 4 3 3 3 3 3 2 1 1 1 1 0 0 0 1 1 1 2 2 1 1 1 1 1 1 1 1 1 1 1 1 1 1 1 1 1
7 6 6 5 5 5 4 4 3 3 3 3 2 1 1 1 0 1 1 0 1 1 1 1 1 2 2 3 2 1 1 1 1 1 1 1 1 2 2 2 1 2 3
7 7 6 5 5 5 5 4 4 3 4 3 2 1 1 1 0 0 0 1 1 0 0 0 1 1 3 2 2 3 1 1 1 1 1 1 2 1 1 2 2 1 1
6 6 5 5 4 4 4 4 4 3 3 2 2 1 1 1 1 1 1 1 1 1 1 1 1 1 2 2 2 2 1 1 1 1 1 1 2 1 1 1 1 2 2
6 5 5 5 5 4 4 5 3 3 3 2 2 2 1 1 1 1 2 1 1 1 1 1 1 1 3 3 2 2 1 1 2 2 2 1 2 3 1 1 0 2 3
4 4 4 5 4 3 4 5 3 3 2 2 3 2 2 2 2 2 2 1 1 1 1 1 1 0 1 3 3 3 1 2 2 3 3 2 2 3 2 2 1 1 3
4 4 5 4 3 3 5 4 3 2 2 2 2 1 2 2 2 1 1 1 1 1 1 1 1 1 1 2 3 3 1 2 2 2 3 3 4 3 3 2 3 4 3
4 4 4 3 2 3 4 4 2 2 2 2 2 1 1 2 1 1 1 1 1 1 1 1 1 1 1 2 2 2 2 2 2 3 3 3 4 4 3 2 3 3 1
4 3 4 3 1 2 3 4 2 2 2 2 1 1 1 1 1 1 1 1 1 0 1 1 1 2 2 2 3 3 4 4 2 3 4 4 4 3 2 3 3 2 1
4 3 4 3 1 1 2 3 2 2 2 2 1 1 1 1 1 1 1 1 1 1 1 1 1 2 2 2 2 3 3 3 3 3 4 4 3 2 2 2 2 1 1
3 3 4 3 2 1 1 1 2 2 2 1 1 1 1 1 1 1 1 2 2 3 3 3 2 2 2 4 4 2 2 2 2 2 2 2 2 2 2 2 2 1 1
3 3 3 3 2 1 1 1 1 2 2 1 1 1 1 1 1 1 2 2 2 2 2 3 3 3 4 4 4 4 4 4 2 1 1 1 1 1 2 2 2 2 2
Wind_Direction
162 153 146 141 128 123 123 119 110 94 117 121 127 122 77 340 359 217 191 187 188 170 139 143 127 131 149 175 158 144 164 161 115 90 22 348 357 358 229 212 182 185 189
159 161 153 144 146 150 153 150 154 141 153 201 198 180 176 200 164 341 328 170 166 161 138 141 148 148 140 126 143 140 137 173 136 127 113 10 344 336 311 203 177 186 186
174 171 165 162 158 162 172 170 178 182 209 224 66 52 51 34 26 12 350 332 118 150 130 143 147 156 158 184 208 170 155 174 197 151 149 157 217 284 327 313 183 175 184
174 174 169 167 172 178 177 173 181 184 194 139 111 115 122 130 241 258 356 357 10 54 90 118 125 150 151 174 208 166 167 154 200 234 203 175 162 161 272 320 320 123 188
179 177 175 169 169 168 164 167 157 156 130 118 132 125 116 128 84 61 54 27 9 19 46 75 82 93 127 152 184 154 155 155 174 196 197 164 91 131 150 250 296 322 265
167 165 167 152 149 152 158 148 133 146 142 127 131 135 135 123 97 74 59 21 5 8 13 38 42 46 115 170 196 175 177 189 167 154 152 163 166 180 161 190 237 261 273
150 152 156 157 156 154 170 150 144 166 168 149 157 151 153 146 139 139 123 76 17 358 347 17 22 13 338 248 210 179 201 195 177 179 202 200 194 176 161 161 202 245 275
153 155 155 152 148 156 166 154 161 167 158 146 162 161 151 147 149 141 131 126 218 279 336 18 10 359 0 358 352 171 245 209 202 188 186 213 251 189 169 170 165 199 283
165 164 160 155 157 158 152 159 169 163 153 152 132 122 126 124 119 111 97 350 307 324 15 33 23 3 360 354 359 355 267 258 234 234 209 216 257 191 179 166 171 171 213
166 160 157 161 164 164 158 150 155 171 157 138 138 125 108 109 103 91 76 45 325 325 16 16 22 12 6 5 8 359 1 48 324 186 96 349 288 342 343 184 181 174 192
163 159 157 161 161 154 149 149 149 136 127 124 114 112 116 129 118 112 135 190 303 332 13 24 19 2 1 4 16 4 20 32 349 345 48 327 304 338 309 203 174 190 185
153 155 156 154 153 153 147 147 148 146 148 141 121 122 113 107 114 135 243 224 314 324 326 32 36 7 7 4 14 2 2 342 314 303 4 317 336 354 308 292 230 215 209
148 149 147 150 150 152 146 142 142 143 141 130 121 114 109 109 128 181 342 47 28 14 24 36 33 349 343 343 333 343 322 313 292 276 252 274 329 330 313 301 266 251 237
150 145 148 151 146 144 143 140 141 140 133 124 120 124 143 154 161 108 40 1 20 39 25 24 21 7 354 350 344 349 335 316 300 283 272 273 249 237 241 245 257 231 196
144 148 151 152 146 144 143 138 139 142 136 129 133 159 170 132 109 92 38 5 20 46 44 39 9 349 345 343 358 349 348 331 320 308 293 287 3 25 297 270 229 192 191
155 156 153 149 151 154 148 142 142 149 138 137 165 181 143 114 131 186 173 82 42 42 54 43 359 345 334 354 15 30 355 357 350 321 304 307 329 338 343 347 301 213 202
159 160 160 160 159 155 149 150 157 153 146 154 165 167 158 152 196 236 187 193 196 106 20 299 303 304 315 349 30 42 40 18 357 321 302 314 341 335 313 340 359 343 297
151 156 151 145 145 144 142 139 136 142 148 154 157 165 173 193 213 197 221 238 232 225 261 294 287 296 331 13 33 28 16 3 314 278 255 258 293 318 334 360 5 336 313
144 146 148 144 141 141 138 125 120 132 142 164 180 191 190 201 216 227 242 231 215 250 257 262 290 340 326 347 1 19 0 345 322 309 304 268 270 298 339 85 353 327 321
122 129 131 125 132 150 137 126 127 125 155 188 192 195 189 191 214 229 238 237 213 238 253 287 285 254 310 339 353 1 340 332 319 321 320 312 298 288 246 186 191 262 283
120 119 116 118 138 141 129 127 135 166 198 178 168 187 198 201 210 216 230 259 254 256 250 263 291 304 311 327 346 350 334 294 304 311 309 305 309 292 266 225 210 236 256
119 119 116 112 119 127 126 131 165 200 171 135 138 185 225 225 205 197 236 258 246 253 265 284 311 314 306 321 333 335 312 304 282 283 287 292 302 294 282 262 266 269 273
129 123 123 118 106 127 137 148 193 188 141 134 177 215 233 244 227 200 234 263 260 234 268 271 287 300 305 304 303 300 300 308 290 280 291 297 294 294 296 311 302 293 253
134 127 122 126 151 173 155 175 189 175 151 167 217 238 236 262 278 259 218 235 249 223 228 244 274 293 299 296 307 310 311 318 314 307 312 310 308 319 325 336 331 309 240
140 139 145 150 165 165 163 197 198 169 167 200 226 240 228 217 230 263 258 238 243 218 205 213 210 234 275 276 281 293 310 313 309 321 338 350 355 349 344 343 335 329 339
138 137 143 151 165 169 215 237 210 174 168 203 241 228 219 221 214 220 306 305 265 278 249 224 212 240 250 267 291 306 309 318 336 46 351 316 301 288 289 299 310 307 287